Theta_e
326 332 337 336 335 335 334 333 332 331 331 330 331 332 330 330 330 331 332 331 329 331 331 331 331 328 323 322 334 338 338 341 340 338 335 332 328 332 332 332 333 334 333
328 335 338 336 333 334 334 332 332 332 330 330 331 331 331 330 328 329 330 330 329 330 330 330 330 332 333 332 331 335 337 339 340 340 338 334 329 331 332 333 333 332 333
330 336 337 334 335 335 333 333 331 331 331 330 330 329 328 329 330 328 329 329 330 330 329 328 329 330 334 334 335 334 336 338 340 341 340 335 332 332 331 333 333 332 334
336 338 336 336 336 335 334 333 333 331 331 331 331 330 328 328 328 328 329 329 331 330 329 328 328 326 332 334 335 336 336 337 340 341 341 336 334 333 331 333 332 332 334
339 338 335 336 335 335 333 334 334 332 331 330 329 329 329 329 328 328 328 329 329 330 329 327 328 326 322 332 335 336 335 337 338 340 341 337 335 332 334 332 332 334 331
340 337 335 334 334 334 334 333 333 332 331 330 329 329 328 328 327 328 328 328 328 329 329 328 329 329 320 320 334 336 337 337 337 338 339 337 334 333 333 333 333 329 320
334 335 335 335 335 334 334 332 331 330 330 329 328 328 327 327 328 328 328 328 329 329 328 328 328 329 328 324 325 333 337 337 337 339 338 336 331 333 331 333 330 326 325
335 335 336 334 333 333 332 331 330 329 329 328 327 326 327 326 327 326 326 328 328 328 327 328 326 327 329 329 323 330 334 338 337 339 338 333 332 333 333 328 324 319 315
336 335 334 333 332 331 330 329 329 329 328 327 327 325 326 325 324 326 327 327 328 327 328 328 327 328 329 328 323 327 331 335 338 338 337 332 333 332 328 322 317 321 323
335 334 333 331 330 329 330 330 329 329 328 326 326 326 325 325 324 323 326 328 328 327 327 327 328 329 330 331 331 329 328 331 339 338 336 334 333 329 326 324 324 322 320
334 333 331 330 330 330 329 329 329 329 328 327 326 326 326 325 326 322 322 324 327 328 329 328 330 329 327 330 331 331 332 331 336 336 335 333 331 328 325 323 322 320 321
333 332 332 331 328 328 329 329 329 329 328 328 327 327 326 324 324 323 322 321 322 327 327 327 327 329 328 331 331 331 333 332 335 335 334 331 328 324 322 323 323 320 320
333 333 332 331 329 329 330 329 330 329 328 328 328 327 327 326 324 323 324 322 322 327 328 328 328 328 329 330 328 332 332 332 333 332 331 328 325 320 322 323 322 322 321
332 331 331 329 328 330 331 331 330 328 328 328 328 328 327 327 326 322 323 324 324 326 327 327 329 333 335 332 330 332 332 330 325 329 327 323 318 322 320 322 319 318 320
332 328 329 330 331 332 331 332 330 329 328 328 327 327 328 327 327 324 324 326 325 326 328 327 328 330 333 331 330 330 329 326 326 328 321 319 320 319 321 319 318 317 318
328 329 329 331 331 331 331 330 329 329 329 328 327 328 328 328 328 328 328 326 326 326 327 326 326 329 332 330 330 330 328 327 327 324 322 322 321 321 319 319 317 317 319
329 329 329 331 330 329 330 329 328 328 327 327 327 328 327 326 327 328 329 328 327 326 325 325 326 328 330 327 326 327 326 324 325 323 321 321 320 319 319 321 323 321 320
330 328 329 331 330 330 329 330 330 328 328 327 327 326 326 327 329 330 329 328 326 326 325 325 324 324 324 324 323 322 321 321 319 318 320 319 319 321 321 319 315 313 316
327 328 328 330 330 330 331 330 330 330 326 323 327 326 326 329 330 327 325 325 325 324 324 324 324 323 322 321 321 320 319 320 320 320 321 319 319 319 316 314 314 317 317
327 327 329 331 330 331 331 331 332 330 328 325 326 328 327 329 329 326 324 324 324 324 323 324 323 323 322 320 319 318 318 318 318 316 315 315 315 315 315 314 317 318 316
327 330 331 331 331 330 329 331 331 329 327 327 329 329 328 328 328 327 325 323 323 323 323 323 323 322 322 321 320 319 318 317 317 318 317 317 319 318 320 320 319 316 314
326 330 329 330 329 325 329 331 331 328 327 328 329 328 329 328 327 326 324 324 323 323 323 323 322 322 322 321 320 319 318 317 316 316 316 318 320 320 319 318 316 313 309
328 330 330 328 325 324 330 331 331 330 329 328 328 328 326 327 326 325 324 324 323 323 323 323 323 322 321 320 321 320 320 319 317 315 318 314 317 318 316 315 311 307 302
329 330 329 327 326 326 330 331 330 330 330 330 326 327 325 325 324 324 324 323 323 323 323 323 323 322 321 321 321 320 319 319 318 318 318 309 308 309 309 306 303 301 301
329 330 330 328 325 327 330 331 330 330 329 328 326 326 325 324 323 324 323 323 322 323 323 322 322 322 321 321 321 320 320 318 317 315 313 311 307 306 304 302 301 301 301
329 329 330 329 325 329 331 331 329 331 329 328 326 325 325 324 324 324 323 323 322 322 322 322 321 321 321 321 320 320 318 318 317 316 315 311 308 308 305 304 303 302 300
Wind_Speed
26 21 19 17 17 17 17 15 16 16 16 16 15 13 13 13 11 14 14 11 13 15 22 18 17 14 15 15 18 21 24 25 26 25 24 24 22 20 17 16 17 18 18
24 22 19 19 18 17 16 13 13 16 15 15 17 15 15 15 15 14 12 14 17 18 19 17 15 16 16 17 19 18 24 25 28 27 25 24 23 20 17 17 18 19 19
26 24 22 19 18 17 16 14 13 13 14 13 16 18 18 17 14 14 14 17 19 20 19 18 16 17 17 17 17 19 20 27 26 25 26 24 25 22 18 19 20 20 22
28 25 21 18 14 15 15 15 15 16 18 19 19 19 17 16 16 14 13 14 17 18 19 18 16 15 18 16 17 18 19 22 24 25 28 25 24 19 19 20 22 23 24
27 27 22 17 15 16 16 16 17 18 20 21 21 19 17 17 17 15 15 17 19 19 18 18 14 13 17 17 17 18 18 20 24 26 30 26 23 22 20 22 24 27 23
28 25 19 13 15 17 17 17 18 18 20 20 19 16 15 18 19 17 16 17 20 22 18 15 11 17 16 18 17 17 18 20 24 26 27 26 21 22 21 22 30 25 20
28 24 17 15 18 17 17 17 15 15 17 19 10 11 12 10 11 15 15 17 18 18 18 18 15 13 16 17 19 20 19 21 23 26 29 25 24 22 22 27 26 27 25
25 20 16 15 14 13 13 13 11 13 13 11 6 3 2 4 17 19 17 17 19 17 17 17 18 16 15 18 19 20 20 21 24 26 24 24 23 24 29 30 30 24 23
22 18 14 11 10 11 11 10 10 12 10 9 13 4 2 3 1 8 19 20 16 16 17 17 17 17 15 15 17 18 18 21 23 26 26 27 25 33 28 27 27 27 21
19 13 11 9 9 9 9 8 8 11 10 9 8 16 4 3 2 1 5 18 17 13 14 15 14 16 14 13 15 18 21 21 25 28 30 30 33 30 31 31 30 28 22
13 12 10 7 7 8 8 8 9 10 12 12 13 6 14 6 3 2 2 1 10 10 10 14 11 13 13 15 16 15 18 22 26 34 32 35 34 33 32 29 26 23 20
12 9 8 8 7 6 8 8 7 9 10 12 13 14 9 5 5 4 2 1 4 5 5 6 10 11 13 14 16 14 15 22 33 40 39 39 37 35 31 28 25 22 18
13 10 9 9 10 8 6 6 7 8 8 11 13 17 18 15 11 12 5 2 3 2 3 4 7 12 14 14 14 15 18 23 32 44 40 39 38 34 31 24 23 21 17
8 7 8 7 7 7 7 8 8 8 7 9 8 14 16 18 16 16 8 7 3 2 3 3 2 3 11 13 13 20 32 38 30 34 42 42 36 33 30 26 23 21 17
7 10 8 6 6 7 8 10 10 10 8 6 8 12 14 15 17 20 17 17 11 3 2 2 1 6 14 22 30 31 40 27 39 42 41 39 38 33 30 27 22 20 15
11 9 7 5 7 6 6 7 8 10 10 9 8 8 12 12 14 16 17 20 18 12 4 3 2 10 20 30 33 37 35 37 41 43 43 41 36 33 29 25 20 19 16
10 9 5 4 3 2 3 4 6 7 8 6 6 7 9 8 9 10 12 21 21 21 9 7 12 18 24 26 30 40 43 42 47 46 40 34 30 28 26 23 21 18 15
11 7 6 6 5 3 2 3 8 7 7 7 7 8 6 5 8 10 15 18 25 21 24 15 16 18 26 30 34 39 39 43 39 33 33 31 28 27 24 19 17 13 8
10 7 5 6 5 2 1 5 5 5 10 5 6 7 8 9 10 15 19 22 25 26 24 24 17 25 28 36 33 37 38 40 38 35 34 31 27 25 23 19 13 9 8
7 4 6 8 5 3 3 4 4 5 13 9 5 6 10 13 16 22 23 24 28 28 28 26 24 27 28 28 38 39 29 34 33 29 24 23 19 17 14 15 13 11 9
6 6 10 10 6 3 5 5 2 8 13 9 7 8 14 13 13 21 30 27 31 29 26 27 24 24 28 30 31 30 29 29 30 32 26 21 18 16 15 13 12 10 9
7 10 12 11 5 4 4 4 5 10 10 12 12 18 21 19 20 22 28 34 33 35 29 24 26 26 24 26 32 32 29 23 8 22 24 18 18 16 14 13 12 11 12
9 11 13 9 5 4 4 5 7 9 10 12 16 18 20 20 21 23 28 30 33 29 30 36 32 28 31 33 33 29 27 19 18 25 23 15 16 15 14 13 13 14 15
9 11 11 8 4 4 4 6 9 11 13 14 17 17 20 20 22 27 28 30 31 29 27 27 32 31 34 35 33 32 27 23 23 25 23 6 14 12 14 15 16 15 13
11 12 11 8 5 6 5 9 12 13 14 16 18 18 23 27 28 30 32 29 27 24 27 28 32 35 35 36 33 32 26 27 16 18 12 13 15 12 14 17 18 16 15
10 12 11 7 6 8 8 10 13 15 17 18 17 19 22 27 28 29 31 31 26 24 25 26 25 28 31 29 33 32 32 25 18 10 14 12 19 11 6 16 20 20 18
Wind_Direction
214 217 221 231 240 245 239 237 246 251 254 249 244 250 247 249 267 261 262 251 239 222 218 219 216 215 221 215 210 208 208 213 210 208 210 211 206 199 194 196 189 175 177
213 216 216 227 241 244 228 231 238 249 241 242 227 240 249 247 256 254 247 252 223 222 221 223 229 222 214 214 215 211 207 213 211 216 217 213 208 204 200 196 187 173 178
212 211 217 227 238 227 225 230 242 231 226 228 234 244 253 258 251 244 241 253 212 216 221 229 227 235 220 215 216 215 213 209 214 219 215 212 208 206 199 195 182 174 169
203 205 215 220 211 222 238 233 244 240 242 244 251 256 252 250 253 247 239 225 206 212 222 223 234 235 221 218 217 218 217 212 212 219 214 210 210 207 199 189 180 170 170
202 208 210 217 229 236 245 251 245 250 253 249 249 254 256 252 252 245 234 228 223 218 228 229 236 242 226 220 219 218 218 213 213 214 214 209 208 197 198 184 176 167 158
199 209 212 221 228 238 245 249 253 252 250 251 248 251 254 251 256 240 238 232 222 220 222 229 250 239 235 227 219 219 212 217 211 209 209 207 197 192 185 183 160 154 153
203 201 211 222 229 232 243 265 261 257 254 247 234 236 245 240 238 228 228 234 227 225 230 241 242 239 238 230 222 217 212 214 209 206 206 203 189 186 183 167 155 149 149
195 204 213 217 225 238 257 271 262 261 262 235 182 137 211 251 243 239 240 236 231 231 240 231 239 239 253 231 221 219 216 211 209 205 207 181 182 175 165 146 145 146 147
194 196 208 227 235 248 255 262 250 235 227 211 207 167 143 212 149 233 232 229 230 226 239 231 235 236 234 226 224 221 221 213 209 195 194 185 175 164 157 153 145 153 141
188 202 230 230 248 251 247 244 239 234 223 211 219 229 235 110 155 326 239 225 224 245 243 244 243 226 236 241 226 225 223 215 201 185 187 182 167 155 149 152 146 139 142
198 214 216 225 242 238 232 236 232 229 226 225 214 201 226 210 194 143 240 175 208 232 234 225 209 217 230 230 231 227 218 210 195 180 180 173 163 151 150 148 145 138 136
195 202 217 223 226 232 234 239 241 239 235 238 235 226 207 177 187 182 177 188 151 170 174 181 218 213 220 233 230 233 210 199 189 177 169 162 154 151 149 147 140 135 135
205 208 211 218 228 234 235 236 242 237 236 235 233 231 226 226 205 203 169 146 119 126 101 161 213 220 221 225 216 209 191 183 161 155 156 150 149 149 146 145 136 137 138
204 192 194 203 222 234 233 225 235 233 231 244 240 227 224 222 221 193 173 149 98 92 76 88 204 173 192 200 207 181 157 145 150 162 156 151 149 152 150 152 144 138 143
184 170 184 199 210 230 235 224 229 234 234 236 225 223 218 212 216 218 219 183 145 138 114 87 167 191 171 157 149 159 159 162 159 161 158 157 159 156 150 142 141 143 150
162 178 188 206 223 227 232 244 233 235 240 233 212 212 204 199 204 217 222 202 179 132 128 123 103 177 164 157 156 153 153 155 160 158 158 155 155 152 146 141 141 155 155
179 186 182 209 221 234 219 218 231 236 208 209 208 180 170 176 197 201 198 186 168 153 131 111 130 154 153 145 147 150 154 152 156 154 148 150 150 144 137 145 153 150 152
191 201 225 235 231 230 245 254 241 212 150 163 179 181 179 189 186 183 182 168 161 154 140 125 126 117 119 137 132 131 132 135 136 150 154 147 141 144 148 152 145 151 135
207 229 245 186 209 213 279 295 284 214 180 183 170 197 188 175 158 151 142 133 138 134 132 128 123 123 119 124 114 119 127 134 141 144 144 145 148 154 159 164 171 187 179
219 245 182 161 144 93 33 349 291 189 168 171 179 184 174 163 154 136 134 136 131 128 128 128 126 127 121 122 121 119 121 130 134 137 141 146 152 155 156 163 170 176 181
203 164 162 152 124 83 25 7 61 129 145 141 143 153 170 164 155 156 143 137 136 132 130 131 129 128 127 128 128 129 125 128 136 147 146 155 163 165 167 174 180 186 192
200 169 160 146 122 89 48 44 95 130 139 138 124 119 132 137 145 153 154 152 147 141 137 137 136 134 133 130 133 131 130 134 126 153 153 153 165 166 174 184 188 192 181
175 163 161 146 128 97 64 92 112 130 143 145 134 135 138 141 149 156 151 147 148 143 146 143 142 141 137 143 137 140 141 141 142 161 158 138 164 173 180 185 186 182 180
177 166 160 143 135 120 86 125 127 123 137 138 144 145 141 140 146 139 134 130 140 146 145 144 144 144 148 149 147 146 145 139 141 159 166 131 169 176 178 181 182 186 190
174 172 168 155 150 142 122 140 138 129 126 133 141 143 138 136 136 132 125 120 122 123 139 147 152 156 154 156 156 148 146 139 145 164 174 157 177 177 184 191 193 196 202
186 177 170 169 160 151 139 149 151 143 128 129 139 141 142 141 143 144 132 129 124 136 141 147 147 153 159 163 163 168 165 150 149 156 195 170 172 165 189 216 210 208 209